Terminal Aerodrome Forecast
Issued by NWS Lake Charles, LA

Current Version | Previous Version | Text Only | Print | Product List | Glossary On
Versions: 1 2 3 4 5 6 7 8 9 10 11 12 13 14 15 16 17 18 19 20 21 22 23
000
FTUS44 KLCH 230520
TAFLCH
TAF
KLCH 230520Z 2306/2406 34006KT 6SM BR OVC008
     FM231500 35008KT P6SM BKN015
     FM231800 31007KT P6SM BKN050
     FM240000 32006KT P6SM VCSH OVC025=

USA.gov is the U.S. government's official web portal to all federal, state and local government web resources and services.